When you browse on this site, cookies collect data to enhance your experience and personalize the content and advertising you see.
Visit our Privacy Policy to learn more. By continuing to use the site, you agree to this use of cookies and data.
  • In Hungary
  • List of Countries
  • For 7 days
  • Water Temperature
  • Weather Map
  • News
  • Weather Widgets
  • user-avatar
    Login

    Hourly Weather Norwich

    Today, 27 May, Wednesday

    Time Temperature Precipitation Wind Pressure Humidity
    00:00 +13°C° 0 mm 1 mps 774 mmHg 79%
    01:00 +12°C° 0 mm 1 mps 774 mmHg 80%
    02:00 +12°C° 0 mm 1 mps 774 mmHg 81%
    03:00 +12°C° 0 mm 1 mps 774 mmHg 83%
    04:00 +13°C° 0 mm 1 mps 774 mmHg 81%
    05:00 +14°C° 0 mm 1 mps 774 mmHg 80%
    06:00 +15°C° 0 mm 1 mps 774 mmHg 78%
    07:00 +15°C° 0 mm 1 mps 774 mmHg 76%
    08:00 +16°C° 0 mm 1 mps 774 mmHg 75%
    09:00 +17°C° 0 mm 2 mps 775 mmHg 73%
    10:00 +18°C° 0 mm 2 mps 774 mmHg 72%
    11:00 +18°C° 0 mm 2 mps 774 mmHg 71%
    12:00 +19°C° 0 mm 3 mps 774 mmHg 70%
    13:00 +18°C° 0 mm 3 mps 774 mmHg 70%
    14:00 +18°C° 0 mm 4 mps 774 mmHg 70%
    15:00 +18°C° 0 mm 4 mps 774 mmHg 70%
    16:00 +17°C° 0 mm 4 mps 774 mmHg 73%
    17:00 +16°C° 0 mm 3 mps 774 mmHg 75%
    18:00 +14°C° 0 mm 3 mps 774 mmHg 77%
    19:00 +13°C° 0 mm 3 mps 774 mmHg 82%
    20:00 +12°C° 0 mm 2 mps 774 mmHg 86%
    21:00 +10°C° 0 mm 2 mps 775 mmHg 91%
    22:00 +11°C° 0 mm 1 mps 775 mmHg 89%
    23:00 +10°C° 0 mm 1 mps 775 mmHg 86%

    Tomorrow, 28 May, Thursday

    Time Temperature Precipitation Wind Pressure Humidity
    00:00 +10°C° 0 mm 1 mps 775 mmHg 84%
    01:00 +10°C° 0 mm 1 mps 774 mmHg 84%
    02:00 +9°C° 0 mm 2 mps 774 mmHg 84%
    03:00 +8°C° 0 mm 2 mps 774 mmHg 84%
    04:00 +9°C° 0 mm 2 mps 774 mmHg 82%
    05:00 +11°C° 0 mm 1 mps 774 mmHg 80%
    06:00 +12°C° 0 mm 1 mps 774 mmHg 78%
    07:00 +14°C° 0 mm 2 mps 774 mmHg 73%
    08:00 +15°C° 0 mm 2 mps 774 mmHg 67%
    09:00 +16°C° 0 mm 3 mps 774 mmHg 62%
    10:00 +17°C° 0 mm 3 mps 774 mmHg 60%
    11:00 +17°C° 0 mm 3 mps 774 mmHg 57%
    12:00 +18°C° 0 mm 3 mps 773 mmHg 55%
    13:00 +18°C° 0 mm 3 mps 773 mmHg 56%
    14:00 +18°C° 0 mm 3 mps 773 mmHg 57%
    15:00 +18°C° 0 mm 4 mps 772 mmHg 58%
    16:00 +17°C° 0 mm 3 mps 772 mmHg 62%
    17:00 +16°C° 0 mm 3 mps 772 mmHg 66%
    18:00 +14°C° 0 mm 3 mps 772 mmHg 70%
    19:00 +13°C° 0 mm 3 mps 772 mmHg 75%
    20:00 +11°C° 0 mm 3 mps 772 mmHg 79%
    21:00 +9°C° 0 mm 3 mps 772 mmHg 83%
    22:00 +9°C° 0 mm 3 mps 772 mmHg 83%
    23:00 +9°C° 0 mm 3 mps 771 mmHg 83%

    Day after tomorrow, 29 May, Friday

    Time Temperature Precipitation Wind Pressure Humidity
    00:00 +8°C° 0 mm 2 mps 771 mmHg 83%
    01:00 +8°C° 0 mm 2 mps 771 mmHg 84%
    02:00 +8°C° 0 mm 2 mps 771 mmHg 85%
    03:00 +8°C° 0 mm 2 mps 771 mmHg 85%
    04:00 +9°C° 0 mm 2 mps 770 mmHg 83%
    05:00 +10°C° 0 mm 2 mps 770 mmHg 81%
    06:00 +13°C° 0 mm 2 mps 770 mmHg 79%
    07:00 +14°C° 0 mm 2 mps 770 mmHg 72%
    08:00 +16°C° 0 mm 2 mps 770 mmHg 65%
    09:00 +17°C° 0 mm 3 mps 770 mmHg 58%
    10:00 +18°C° 0 mm 3 mps 770 mmHg 55%
    11:00 +18°C° 0 mm 3 mps 770 mmHg 53%
    12:00 +19°C° 0 mm 3 mps 770 mmHg 50%
    13:00 +19°C° 0 mm 4 mps 769 mmHg 52%
    14:00 +18°C° 0 mm 4 mps 769 mmHg 53%
    15:00 +18°C° 0 mm 4 mps 768 mmHg 55%
    16:00 +17°C° 0 mm 4 mps 768 mmHg 58%
    17:00 +17°C° 0 mm 3 mps 768 mmHg 62%
    18:00 +16°C° 0 mm 3 mps 768 mmHg 66%
    19:00 +13°C° 0 mm 3 mps 768 mmHg 69%
    20:00 +12°C° 0 mm 3 mps 768 mmHg 73%
    21:00 +10°C° 0 mm 3 mps 768 mmHg 76%
    22:00 +10°C° 0 mm 3 mps 768 mmHg 78%
    23:00 +10°C° 0 mm 3 mps 768 mmHg 80%

    30 May, Saturday

    Time Temperature Precipitation Wind Pressure Humidity
    00:00 +10°C° 0 mm 3 mps 768 mmHg 82%
    01:00 +9°C° 0 mm 3 mps 768 mmHg 84%
    02:00 +9°C° 0 mm 3 mps 768 mmHg 86%
    03:00 +9°C° 0 mm 2 mps 768 mmHg 88%
    04:00 +10°C° 0 mm 2 mps 768 mmHg 86%
    05:00 +12°C° 0 mm 2 mps 768 mmHg 84%
    06:00 +14°C° 0 mm 1 mps 768 mmHg 82%
    07:00 +15°C° 0 mm 2 mps 768 mmHg 77%
    08:00 +17°C° 0 mm 2 mps 768 mmHg 73%
    09:00 +18°C° 0 mm 2 mps 768 mmHg 68%
    10:00 +19°C° 0 mm 3 mps 768 mmHg 66%
    11:00 +19°C° 0 mm 3 mps 768 mmHg 64%
    12:00 +20°C° 0 mm 3 mps 768 mmHg 62%
    13:00 +19°C° 0 mm 4 mps 767 mmHg 62%
    14:00 +19°C° 0 mm 4 mps 767 mmHg 62%
    15:00 +19°C° 0 mm 4 mps 767 mmHg 63%
    16:00 +18°C° 0 mm 4 mps 767 mmHg 65%
    17:00 +17°C° 0 mm 4 mps 767 mmHg 68%
    18:00 +15°C° 0 mm 4 mps 767 mmHg 70%
    19:00 +13°C° 0 mm 3 mps 767 mmHg 75%
    20:00 +11°C° 0 mm 3 mps 767 mmHg 80%
    21:00 +10°C° 0 mm 3 mps 767 mmHg 84%
    22:00 +10°C° 0 mm 3 mps 767 mmHg 87%
    23:00 +9°C° 0 mm 2 mps 767 mmHg 90%

    31 May, Sunday

    Time Temperature Precipitation Wind Pressure Humidity
    00:00 +9°C° 0 mm 2 mps 767 mmHg 92%
    01:00 +9°C° 0 mm 2 mps 767 mmHg 93%
    02:00 +9°C° 0 mm 2 mps 767 mmHg 94%
    03:00 +9°C° 0 mm 2 mps 766 mmHg 94%
    04:00 +10°C° 0 mm 2 mps 767 mmHg 93%
    05:00 +12°C° 0 mm 3 mps 767 mmHg 91%
    06:00 +13°C° 0 mm 3 mps 767 mmHg 90%
    07:00 +16°C° 0 mm 3 mps 767 mmHg 83%
    08:00 +17°C° 0 mm 3 mps 767 mmHg 76%
    09:00 +19°C° 0 mm 3 mps 767 mmHg 69%
    10:00 +19°C° 0 mm 3 mps 767 mmHg 67%
    11:00 +19°C° 0 mm 4 mps 767 mmHg 65%
    12:00 +20°C° 0 mm 4 mps 767 mmHg 62%
    13:00 +20°C° 0 mm 4 mps 766 mmHg 63%
    14:00 +20°C° 0 mm 4 mps 766 mmHg 64%
    15:00 +19°C° 0 mm 4 mps 766 mmHg 65%
    16:00 +19°C° 0 mm 4 mps 766 mmHg 68%
    17:00 +18°C° 0 mm 4 mps 766 mmHg 71%
    18:00 +17°C° 0 mm 4 mps 766 mmHg 74%
    19:00 +15°C° 0 mm 4 mps 766 mmHg 79%
    20:00 +13°C° 0 mm 3 mps 766 mmHg 83%
    21:00 +11°C° 0 mm 3 mps 766 mmHg 88%
    22:00 +11°C° 0 mm 3 mps 766 mmHg 89%
    23:00 +12°C° 0 mm 3 mps 766 mmHg 89%

    1 June, Monday

    Time Temperature Precipitation Wind Pressure Humidity
    00:00 +12°C° 0 mm 3 mps 766 mmHg 90%
    01:00 +11°C° 0 mm 3 mps 766 mmHg 90%
    02:00 +11°C° 0 mm 3 mps 765 mmHg 91%
    03:00 +11°C° 0 mm 3 mps 765 mmHg 91%
    04:00 +12°C° 0 mm 3 mps 765 mmHg 89%
    05:00 +13°C° 0 mm 3 mps 765 mmHg 86%
    06:00 +14°C° 0 mm 3 mps 765 mmHg 83%
    07:00 +16°C° 0 mm 3 mps 765 mmHg 79%
    08:00 +17°C° 0 mm 3 mps 765 mmHg 74%
    09:00 +19°C° 0 mm 3 mps 765 mmHg 70%
    10:00 +19°C° 0 mm 3 mps 765 mmHg 66%
    11:00 +20°C° 0 mm 3 mps 765 mmHg 63%
    12:00 +21°C° 0 mm 4 mps 765 mmHg 59%
    13:00 +20°C° 0 mm 4 mps 764 mmHg 59%
    14:00 +20°C° 0 mm 4 mps 764 mmHg 59%
    15:00 +20°C° 0 mm 3 mps 763 mmHg 59%
    16:00 +19°C° 0 mm 3 mps 763 mmHg 63%
    17:00 +18°C° 0 mm 3 mps 763 mmHg 67%
    18:00 +18°C° 0 mm 3 mps 763 mmHg 71%
    19:00 +16°C° 0 mm 3 mps 763 mmHg 74%
    20:00 +13°C° 0 mm 3 mps 763 mmHg 78%
    21:00 +11°C° 0 mm 3 mps 763 mmHg 82%
    22:00 +12°C° 0 mm 2 mps 762 mmHg 83%
    23:00 +12°C° 0 mm 2 mps 762 mmHg 83%
    Show more